When you browse on this site, cookies collect data to enhance your experience and personalize the content and advertising you see.
Visit our Privacy Policy to learn more. By continuing to use the site, you agree to this use of cookies and data.
  • In Latvia
  • List of Countries
  • For 7 days
  • Water Temperature
  • Weather Map
  • Weather Widgets
  • user-avatar
    Login

    Hourly Weather Nashavar

    Today, 23 August, Friday

    Time Temperature Precipitation Wind Pressure Humidity
    00:00 +33°C° 0 mm 1 mps 724 mmHg 54%
    01:00 +33°C° 0 mm 1 mps 724 mmHg 55%
    02:00 +32°C° 0 mm 1 mps 724 mmHg 56%
    03:00 +32°C° 0.3 mm 1 mps 724 mmHg 58%
    04:00 +31°C° 0.3 mm 1 mps 724 mmHg 61%
    05:00 +30°C° 0.3 mm 1 mps 724 mmHg 63%
    06:00 +31°C° 0.2 mm 1 mps 724 mmHg 61%
    07:00 +31°C° 0.2 mm 1 mps 725 mmHg 59%
    08:00 +31°C° 0.2 mm 1 mps 725 mmHg 58%
    09:00 +33°C° 0 mm 1 mps 725 mmHg 54%
    10:00 +34°C° 0 mm 1 mps 725 mmHg 49%
    11:00 +35°C° 0 mm 1 mps 725 mmHg 45%
    12:00 +36°C° 0 mm 1 mps 725 mmHg 42%
    13:00 +37°C° 0 mm 1 mps 724 mmHg 40%
    14:00 +39°C° 0 mm 1 mps 724 mmHg 37%
    15:00 +39°C° 0 mm 2 mps 723 mmHg 36%
    16:00 +40°C° 0 mm 2 mps 723 mmHg 35%
    17:00 +40°C° 0 mm 2 mps 723 mmHg 35%
    18:00 +39°C° 0 mm 2 mps 723 mmHg 38%
    19:00 +37°C° 0 mm 2 mps 723 mmHg 42%
    20:00 +36°C° 0 mm 2 mps 723 mmHg 46%
    21:00 +35°C° 0 mm 1 mps 723 mmHg 48%
    22:00 +35°C° 0 mm 1 mps 723 mmHg 49%
    23:00 +34°C° 0 mm 1 mps 723 mmHg 51%

    Tomorrow, 24 August, Saturday

    Time Temperature Precipitation Wind Pressure Humidity
    00:00 +34°C° 0 mm 1 mps 723 mmHg 53%
    01:00 +33°C° 0 mm 1 mps 723 mmHg 54%
    02:00 +33°C° 0 mm 1 mps 723 mmHg 55%
    03:00 +33°C° 0 mm 1 mps 723 mmHg 56%
    04:00 +32°C° 0 mm 1 mps 723 mmHg 57%
    05:00 +32°C° 0 mm 1 mps 723 mmHg 58%
    06:00 +32°C° 0 mm 1 mps 723 mmHg 56%
    07:00 +33°C° 0 mm 1 mps 724 mmHg 54%
    08:00 +33°C° 0 mm 1 mps 724 mmHg 51%
    09:00 +34°C° 0 mm 1 mps 724 mmHg 48%
    10:00 +36°C° 0 mm 1 mps 724 mmHg 45%
    11:00 +38°C° 0 mm 2 mps 724 mmHg 41%
    12:00 +39°C° 0 mm 2 mps 724 mmHg 38%
    13:00 +40°C° 0 mm 1 mps 724 mmHg 36%
    14:00 +41°C° 0 mm 1 mps 723 mmHg 33%
    15:00 +41°C° 0 mm 2 mps 723 mmHg 32%
    16:00 +41°C° 0 mm 2 mps 723 mmHg 31%
    17:00 +42°C° 0 mm 3 mps 722 mmHg 31%
    18:00 +40°C° 0 mm 3 mps 722 mmHg 35%
    19:00 +39°C° 0 mm 2 mps 722 mmHg 39%
    20:00 +37°C° 0 mm 2 mps 722 mmHg 43%
    21:00 +37°C° 0 mm 2 mps 722 mmHg 45%
    22:00 +35°C° 0 mm 1 mps 722 mmHg 47%
    23:00 +35°C° 0 mm 1 mps 723 mmHg 49%

    Day after tomorrow, 25 August, Sunday

    Time Temperature Precipitation Wind Pressure Humidity
    00:00 +32°C° 0 mm 0 mps 722 mmHg 51%
    01:00 +32°C° 0 mm 0 mps 722 mmHg 52%
    02:00 +31°C° 0 mm 0 mps 722 mmHg 53%
    03:00 +33°C° 0 mm 1 mps 722 mmHg 54%
    04:00 +33°C° 0 mm 1 mps 722 mmHg 55%
    05:00 +32°C° 0 mm 1 mps 722 mmHg 56%
    06:00 +33°C° 0 mm 1 mps 722 mmHg 54%
    07:00 +33°C° 0 mm 1 mps 722 mmHg 52%
    08:00 +35°C° 0 mm 2 mps 723 mmHg 49%
    09:00 +36°C° 0 mm 2 mps 723 mmHg 46%
    10:00 +37°C° 0 mm 2 mps 723 mmHg 43%
    11:00 +38°C° 0 mm 2 mps 723 mmHg 40%
    12:00 +39°C° 0 mm 2 mps 723 mmHg 37%
    13:00 +40°C° 0 mm 2 mps 723 mmHg 34%
    14:00 +41°C° 0 mm 2 mps 723 mmHg 31%
    15:00 +41°C° 0 mm 2 mps 723 mmHg 30%
    16:00 +43°C° 0 mm 3 mps 723 mmHg 29%
    17:00 +43°C° 0 mm 3 mps 722 mmHg 29%
    18:00 +40°C° 0 mm 3 mps 722 mmHg 33%
    19:00 +39°C° 0 mm 3 mps 723 mmHg 37%
    20:00 +38°C° 0 mm 2 mps 723 mmHg 42%
    21:00 +37°C° 0 mm 2 mps 723 mmHg 43%
    22:00 +36°C° 0 mm 1 mps 723 mmHg 45%
    23:00 +35°C° 0 mm 1 mps 723 mmHg 47%

    26 August, Monday

    Time Temperature Precipitation Wind Pressure Humidity
    00:00 +35°C° 0.2 mm 1 mps 723 mmHg 49%
    01:00 +34°C° 0.2 mm 1 mps 723 mmHg 52%
    02:00 +34°C° 0.2 mm 2 mps 723 mmHg 54%
    03:00 +32°C° 0.8 mm 2 mps 723 mmHg 59%
    04:00 +31°C° 0.8 mm 2 mps 723 mmHg 64%
    05:00 +30°C° 0.8 mm 2 mps 723 mmHg 70%
    06:00 +30°C° 0.7 mm 2 mps 724 mmHg 70%
    07:00 +30°C° 0.7 mm 2 mps 724 mmHg 71%
    08:00 +31°C° 0.7 mm 2 mps 724 mmHg 72%
    09:00 +32°C° 0.1 mm 2 mps 724 mmHg 68%
    10:00 +32°C° 0.1 mm 2 mps 724 mmHg 65%
    11:00 +34°C° 0.1 mm 2 mps 724 mmHg 62%
    12:00 +36°C° 0 mm 2 mps 724 mmHg 58%
    13:00 +37°C° 0 mm 2 mps 724 mmHg 53%
    14:00 +38°C° 0 mm 3 mps 724 mmHg 49%
    15:00 +38°C° 0 mm 3 mps 723 mmHg 48%
    16:00 +38°C° 0 mm 3 mps 723 mmHg 47%
    17:00 +39°C° 0 mm 3 mps 723 mmHg 46%
    18:00 +38°C° 0 mm 3 mps 723 mmHg 50%
    19:00 +36°C° 0 mm 2 mps 723 mmHg 54%
    20:00 +35°C° 0 mm 2 mps 723 mmHg 58%
    21:00 +34°C° 0.1 mm 1 mps 723 mmHg 58%
    22:00 +34°C° 0.1 mm 1 mps 723 mmHg 59%
    23:00 +32°C° 0.1 mm 0 mps 723 mmHg 60%

    27 August, Tuesday

    Time Temperature Precipitation Wind Pressure Humidity
    00:00 +33°C° 0.6 mm 1 mps 723 mmHg 62%
    01:00 +32°C° 0.6 mm 1 mps 723 mmHg 64%
    02:00 +32°C° 0.6 mm 1 mps 722 mmHg 67%
    03:00 +31°C° 1.5 mm 1 mps 723 mmHg 69%
    04:00 +30°C° 1.5 mm 1 mps 723 mmHg 71%
    05:00 +30°C° 1.5 mm 1 mps 723 mmHg 74%
    06:00 +31°C° 0.1 mm 1 mps 723 mmHg 70%
    07:00 +31°C° 0.1 mm 1 mps 723 mmHg 67%
    08:00 +32°C° 0.1 mm 1 mps 723 mmHg 63%
    09:00 +33°C° 0 mm 1 mps 724 mmHg 59%
    10:00 +34°C° 0 mm 1 mps 724 mmHg 55%
    11:00 +36°C° 0 mm 1 mps 724 mmHg 51%
    12:00 +37°C° 0 mm 1 mps 723 mmHg 47%
    13:00 +39°C° 0 mm 1 mps 723 mmHg 44%
    14:00 +40°C° 0 mm 2 mps 723 mmHg 41%
    15:00 +40°C° 0 mm 2 mps 722 mmHg 40%
    16:00 +40°C° 0 mm 2 mps 722 mmHg 40%
    17:00 +40°C° 0 mm 3 mps 722 mmHg 40%
    18:00 +39°C° 0 mm 2 mps 722 mmHg 44%
    19:00 +38°C° 0 mm 2 mps 722 mmHg 48%
    20:00 +37°C° 0 mm 2 mps 722 mmHg 52%
    21:00 +36°C° 0 mm 2 mps 723 mmHg 53%
    22:00 +35°C° 0 mm 1 mps 723 mmHg 54%
    23:00 +35°C° 0 mm 1 mps 723 mmHg 56%

    28 August, Wednesday

    Time Temperature Precipitation Wind Pressure Humidity
    00:00 +34°C° 0.1 mm 1 mps 723 mmHg 58%
    01:00 +34°C° 0.1 mm 1 mps 723 mmHg 59%
    02:00 +33°C° 0.1 mm 1 mps 723 mmHg 61%
    03:00 +33°C° 0.7 mm 1 mps 723 mmHg 63%
    04:00 +32°C° 0.7 mm 1 mps 723 mmHg 65%
    05:00 +31°C° 0.7 mm 1 mps 723 mmHg 67%
    06:00 +32°C° 0.1 mm 1 mps 723 mmHg 65%
    07:00 +32°C° 0.1 mm 1 mps 724 mmHg 62%
    08:00 +33°C° 0.1 mm 1 mps 724 mmHg 60%
    09:00 +34°C° 0 mm 1 mps 724 mmHg 56%
    10:00 +35°C° 0 mm 1 mps 724 mmHg 52%
    11:00 +36°C° 0 mm 1 mps 724 mmHg 48%
    12:00 +37°C° 0 mm 1 mps 724 mmHg 45%
    13:00 +39°C° 0 mm 1 mps 724 mmHg 42%
    14:00 +40°C° 0 mm 2 mps 723 mmHg 40%
    15:00 +40°C° 0 mm 2 mps 723 mmHg 39%
    16:00 +40°C° 0 mm 2 mps 723 mmHg 39%
    17:00 +40°C° 0 mm 3 mps 722 mmHg 38%
    18:00 +39°C° 0 mm 2 mps 723 mmHg 42%
    19:00 +38°C° 0 mm 2 mps 723 mmHg 46%
    20:00 +37°C° 0 mm 2 mps 723 mmHg 49%
    21:00 +37°C° 0 mm 2 mps 723 mmHg 51%
    22:00 +35°C° 0 mm 1 mps 723 mmHg 53%
    23:00 +35°C° 0 mm 1 mps 724 mmHg 55%
    Show more